TimeCDT,TemperatureF,Dew PointF,Humidity,Sea Level PressureIn,VisibilityMPH,Wind Direction,Wind SpeedMPH,Gust SpeedMPH,PrecipitationIn,Events,Conditions,WindDirDegrees,DateUTC
12:53 AM,61.0,54.0,78,29.97,10.0,SE,5.8,-,N/A,,Mostly Cloudy,130,2014-04-21 05:53:00
1:53 AM,57.0,52.0,83,29.97,10.0,South,4.6,-,N/A,,Scattered Clouds,170,2014-04-21 06:53:00
2:53 AM,55.0,50.0,83,29.94,10.0,SSE,6.9,-,N/A,,Clear,160,2014-04-21 07:53:00
3:53 AM,55.9,51.1,84,29.94,9.0,South,8.1,-,N/A,,Clear,170,2014-04-21 08:53:00
4:53 AM,53.1,50.0,89,29.95,7.0,SSW,5.8,-,N/A,,Clear,200,2014-04-21 09:53:00
5:53 AM,53.1,50.0,89,29.97,6.0,SSW,4.6,-,N/A,,Overcast,200,2014-04-21 10:53:00
6:53 AM,54.0,51.1,90,30.00,6.0,NW,3.5,-,N/A,,Mostly Cloudy,320,2014-04-21 11:53:00
7:53 AM,55.0,52.0,89,29.99,10.0,SSW,9.2,-,N/A,,Partly Cloudy,200,2014-04-21 12:53:00
8:53 AM,60.1,54.0,80,29.99,8.0,Calm,Calm,-,N/A,,Overcast,0,2014-04-21 13:53:00
9:53 AM,64.9,55.9,73,30.02,10.0,NW,12.7,-,N/A,,Scattered Clouds,320,2014-04-21 14:53:00
10:53 AM,73.0,53.1,49,30.02,10.0,North,17.3,-,N/A,,Partly Cloudy,350,2014-04-21 15:53:00
11:53 AM,69.1,52.0,54,30.03,10.0,North,15.0,-,N/A,,Overcast,350,2014-04-21 16:53:00
12:53 PM,75.0,52.0,44,30.01,10.0,North,11.5,-,N/A,,Clear,350,2014-04-21 17:53:00
1:53 PM,80.1,48.0,32,30.00,10.0,North,15.0,21.9,0.00,,Clear,360,2014-04-21 18:53:00
2:53 PM,81.0,46.0,29,30.00,10.0,North,18.4,27.6,N/A,,Clear,10,2014-04-21 19:53:00
3:53 PM,81.0,39.9,23,30.00,10.0,North,20.7,27.6,N/A,,Clear,360,2014-04-21 20:53:00
4:53 PM,80.1,34.0,19,30.00,10.0,North,21.9,29.9,N/A,,Clear,350,2014-04-21 21:53:00
5:53 PM,78.1,28.0,16,30.01,10.0,North,20.7,29.9,N/A,,Clear,10,2014-04-21 22:53:00
6:53 PM,75.0,27.0,17,30.03,10.0,North,20.7,26.5,N/A,,Clear,10,2014-04-21 23:53:00
7:53 PM,71.1,27.0,19,30.05,10.0,North,11.5,-,N/A,,Clear,10,2014-04-22 00:53:00
8:53 PM,69.1,24.1,18,30.06,10.0,North,12.7,-,N/A,,Clear,10,2014-04-22 01:53:00
9:53 PM,64.9,24.1,21,30.07,10.0,NNE,6.9,-,N/A,,Clear,20,2014-04-22 02:53:00
10:53 PM,52.0,28.9,41,30.10,10.0,NW,6.9,-,N/A,,Clear,310,2014-04-22 03:53:00
11:53 PM,52.0,28.0,40,30.11,10.0,NW,4.6,-,N/A,,Clear,320,2014-04-22 04:53:00